AGJ920 LIPX-LICR

Flight info

Callsign AGJ920
Flight time 1h 21m
Altitude 330
Route ITEF5A TAGHE KREVA PETAS ROSUV GENGI SIPRO AGNIS FOSQ1E
Aircraft A319/M-SDE3FG/L

Departure

Time 2026-04-25 09:51
Airport Verona Villafranca Valerio Catullo Airport (LIPX)

Arrival

Time 2026-04-25 11:12
Airport Reggio Calabria Airport (LICR)
Time Latitude Longitude Altitude Speed Heading
2026-04-25 09:21 45.40359 10.90682 237 ft 0 kts 135°
2026-04-25 09:35 45.40362 10.90678 237 ft 2 kts 135°
2026-04-25 09:35 45.40373 10.90662 237 ft 2 kts 135°
2026-04-25 09:35 45.40385 10.90646 237 ft 2 kts 144°
2026-04-25 09:36 45.40400 10.90637 237 ft 2 kts 178°
2026-04-25 09:36 45.40416 10.90641 237 ft 2 kts 229°
2026-04-25 09:36 45.40423 10.90661 237 ft 2 kts 245°
2026-04-25 09:36 45.40427 10.90669 237 ft 0 kts 230°
2026-04-25 09:38 45.40425 10.90666 237 ft 2 kts 226°
2026-04-25 09:38 45.40405 10.90637 237 ft 6 kts 226°
2026-04-25 09:39 45.40374 10.90592 237 ft 7 kts 224°
2026-04-25 09:39 45.40337 10.90540 237 ft 7 kts 225°
2026-04-25 09:39 45.40313 10.90507 237 ft 7 kts 225°
2026-04-25 09:40 45.40259 10.90398 237 ft 5 kts 269°
2026-04-25 09:40 45.40270 10.90362 237 ft 4 kts 312°
2026-04-25 09:40 45.40288 10.90337 237 ft 4 kts 316°
2026-04-25 09:40 45.40301 10.90319 236 ft 4 kts 317°
2026-04-25 09:41 45.40324 10.90286 236 ft 6 kts 305°
2026-04-25 09:41 45.40329 10.90222 236 ft 8 kts 257°
2026-04-25 09:41 45.40313 10.90132 237 ft 11 kts 255°
2026-04-25 09:41 45.40294 10.90022 237 ft 12 kts 256°
2026-04-25 09:42 45.40319 10.89913 238 ft 13 kts 316°
2026-04-25 09:42 45.40388 10.89814 237 ft 12 kts 315°
2026-04-25 09:42 45.40396 10.89708 237 ft 12 kts 231°
2026-04-25 09:42 45.40385 10.89692 237 ft 1 kts 225°
2026-04-25 09:43 45.40384 10.89689 237 ft 0 kts 225°
2026-04-25 09:44 45.40392 10.89702 237 ft 2 kts 225°
2026-04-25 09:44 45.40407 10.89721 237 ft 3 kts 216°
2026-04-25 09:44 45.40428 10.89739 237 ft 5 kts 196°
2026-04-25 09:45 45.40446 10.89740 237 ft 0 kts 156°
2026-04-25 09:46 45.40445 10.89741 237 ft 2 kts 156°
2026-04-25 09:47 45.40424 10.89764 237 ft 0 kts 137°
2026-04-25 09:48 45.40403 10.89792 237 ft 10 kts 137°
2026-04-25 09:48 45.40340 10.89881 238 ft 14 kts 132°
2026-04-25 09:48 45.40293 10.90004 238 ft 15 kts 90°
2026-04-25 09:49 45.40300 10.90147 236 ft 12 kts 106°
2026-04-25 09:49 45.40303 10.90242 236 ft 9 kts 10°
2026-04-25 09:49 45.40341 10.90184 236 ft 9 kts 294°
2026-04-25 09:49 45.40381 10.90099 236 ft 11 kts 294°
2026-04-25 09:50 45.40356 10.89994 237 ft 19 kts 221°
2026-04-25 09:50 45.40123 10.89659 239 ft 81 kts 226°
2026-04-25 09:50 45.39568 10.88848 240 ft 147 kts 226°
2026-04-25 09:50 45.38758 10.87660 717 ft 173 kts 226°
2026-04-25 09:51 45.38086 10.86338 1745 ft 161 kts 245°
2026-04-25 09:51 45.37646 10.84760 2324 ft 182 kts 248°
2026-04-25 09:51 45.37314 10.83612 2588 ft 199 kts 247°
2026-04-25 09:51 45.36513 10.80923 3163 ft 241 kts 248°
2026-04-25 09:52 45.36068 10.79417 3552 ft 259 kts 247°
2026-04-25 09:52 45.35325 10.77055 4665 ft 260 kts 244°
2026-04-25 09:52 45.34230 10.75032 5762 ft 264 kts 217°
2026-04-25 09:52 45.32546 10.73929 6681 ft 272 kts 191°
2026-04-25 09:53 45.30640 10.74040 7626 ft 276 kts 163°
2026-04-25 09:53 45.28984 10.75401 8528 ft 283 kts 135°
2026-04-25 09:53 45.27952 10.77758 9409 ft 290 kts 107°
2026-04-25 09:53 45.27693 10.80629 10233 ft 297 kts 92°
2026-04-25 09:54 45.27648 10.83593 10943 ft 305 kts 91°
2026-04-25 09:54 45.27600 10.86713 11349 ft 325 kts 92°
2026-04-25 09:54 45.27513 10.90038 11674 ft 346 kts 92°
2026-04-25 09:54 45.27413 10.93542 11995 ft 365 kts 92°
2026-04-25 09:55 45.27318 10.97127 12871 ft 365 kts 92°
2026-04-25 09:55 45.27226 11.00765 13666 ft 370 kts 93°
2026-04-25 09:55 45.26754 11.04371 14298 ft 374 kts 112°
2026-04-25 09:55 45.25414 11.07471 14987 ft 374 kts 133°
2026-04-25 09:56 45.23543 11.10087 15609 ft 378 kts 138°
2026-04-25 09:56 45.21598 11.12603 16265 ft 381 kts 139°
2026-04-25 09:56 45.19633 11.15156 16906 ft 385 kts 139°
2026-04-25 09:56 45.17680 11.17765 17522 ft 389 kts 138°
2026-04-25 09:57 45.15696 11.20415 18141 ft 392 kts 139°
2026-04-25 09:57 45.13485 11.22625 18681 ft 391 kts 157°
2026-04-25 09:57 45.10854 11.23702 19213 ft 390 kts 175°
2026-04-25 09:57 45.08180 11.23541 19727 ft 389 kts 194°
2026-04-25 09:58 45.05603 11.22378 20243 ft 390 kts 201°
2026-04-25 09:58 45.03054 11.21007 20734 ft 393 kts 202°
2026-04-25 09:58 45.00426 11.20029 21242 ft 398 kts 187°
2026-04-25 09:58 44.98339 11.20052 21625 ft 402 kts 177°
2026-04-25 09:59 44.95530 11.20484 22067 ft 407 kts 175°
2026-04-25 09:59 44.92695 11.20996 22552 ft 409 kts 175°
2026-04-25 09:59 44.89871 11.21483 23014 ft 412 kts 175°
2026-04-25 09:59 44.87018 11.21933 23451 ft 415 kts 176°
2026-04-25 10:00 44.84125 11.22394 23863 ft 417 kts 175°
2026-04-25 10:00 44.81213 11.22880 24224 ft 420 kts 175°
2026-04-25 10:00 44.78339 11.23437 24591 ft 424 kts 170°
2026-04-25 10:00 44.75570 11.24929 24949 ft 430 kts 154°
2026-04-25 10:01 44.72907 11.26970 25282 ft 434 kts 153°
2026-04-25 10:01 44.70300 11.29039 25626 ft 436 kts 153°
2026-04-25 10:01 44.67645 11.31111 25976 ft 438 kts 153°
2026-04-25 10:01 44.64951 11.33169 26303 ft 440 kts 153°
2026-04-25 10:02 44.62244 11.35244 26637 ft 442 kts 153°
2026-04-25 10:02 44.59555 11.37328 26953 ft 444 kts 153°
2026-04-25 10:02 44.56847 11.39424 27274 ft 446 kts 153°
2026-04-25 10:02 44.54115 11.41519 27581 ft 448 kts 153°
2026-04-25 10:03 44.51361 11.43628 27879 ft 450 kts 153°
2026-04-25 10:03 44.48626 11.45730 28178 ft 452 kts 153°
2026-04-25 10:03 44.45865 11.47851 28461 ft 454 kts 153°
2026-04-25 10:03 44.43084 11.49987 28742 ft 455 kts 152°
2026-04-25 10:04 44.40273 11.52141 29000 ft 457 kts 153°
2026-04-25 10:04 44.37471 11.54252 29283 ft 459 kts 153°
2026-04-25 10:04 44.34696 11.56372 29543 ft 461 kts 152°
2026-04-25 10:04 44.31879 11.58544 29825 ft 463 kts 152°
2026-04-25 10:05 44.29051 11.60701 30162 ft 462 kts 152°
2026-04-25 10:05 44.26214 11.62841 30501 ft 461 kts 152°
2026-04-25 10:05 44.23405 11.64968 30818 ft 460 kts 152°
2026-04-25 10:05 44.20590 11.67114 31149 ft 459 kts 152°
2026-04-25 10:06 44.17786 11.69245 31443 ft 458 kts 152°
2026-04-25 10:06 44.14992 11.71356 31741 ft 457 kts 152°
2026-04-25 10:06 44.12234 11.73438 32046 ft 456 kts 152°
2026-04-25 10:06 44.09453 11.75537 32348 ft 454 kts 152°
2026-04-25 10:07 44.06673 11.77638 32650 ft 453 kts 152°
2026-04-25 10:07 44.03892 11.79738 32957 ft 452 kts 153°
2026-04-25 10:07 44.01124 11.81818 33111 ft 454 kts 152°
2026-04-25 10:07 43.98324 11.83920 33081 ft 458 kts 152°
2026-04-25 10:08 43.92755 11.88109 33089 ft 456 kts 152°
2026-04-25 10:08 43.87178 11.92284 33083 ft 455 kts 152°
2026-04-25 10:09 43.81629 11.96433 33095 ft 454 kts 152°
2026-04-25 10:09 43.76062 12.00589 33088 ft 454 kts 152°
2026-04-25 10:10 43.70506 12.04725 33089 ft 454 kts 152°
2026-04-25 10:10 43.65037 12.09032 33098 ft 454 kts 150°
2026-04-25 10:11 43.59506 12.13245 33099 ft 453 kts 150°
2026-04-25 10:11 43.54700 12.17103 33104 ft 453 kts 149°
2026-04-25 10:12 43.49208 12.21378 33109 ft 453 kts 150°
2026-04-25 10:13 43.41900 12.27124 33119 ft 453 kts 150°
2026-04-25 10:13 43.36395 12.31404 33123 ft 453 kts 150°
2026-04-25 10:14 43.30954 12.35656 33123 ft 453 kts 149°
2026-04-25 10:14 43.25453 12.39929 33127 ft 453 kts 150°
2026-04-25 10:15 43.19955 12.44198 33124 ft 453 kts 149°
2026-04-25 10:15 43.14470 12.48448 33132 ft 453 kts 150°
2026-04-25 10:16 43.08994 12.52678 33131 ft 454 kts 149°
2026-04-25 10:16 43.03474 12.56937 33135 ft 454 kts 149°
2026-04-25 10:17 42.97992 12.61157 33135 ft 454 kts 149°
2026-04-25 10:17 42.92473 12.65395 33130 ft 454 kts 149°
2026-04-25 10:18 42.86989 12.69602 33120 ft 454 kts 149°
2026-04-25 10:18 42.81469 12.73821 33116 ft 454 kts 149°
2026-04-25 10:19 42.75951 12.78035 33116 ft 454 kts 149°
2026-04-25 10:19 42.70447 12.82229 33121 ft 454 kts 149°
2026-04-25 10:20 42.64944 12.86410 33125 ft 454 kts 149°
2026-04-25 10:20 42.59431 12.90595 33127 ft 454 kts 149°
2026-04-25 10:21 42.53946 12.94747 33130 ft 454 kts 149°
2026-04-25 10:21 42.48426 12.98919 33131 ft 454 kts 149°
2026-04-25 10:22 42.42901 13.03083 33126 ft 455 kts 149°
2026-04-25 10:22 42.37295 13.07073 33125 ft 455 kts 153°
2026-04-25 10:23 42.31637 13.10906 33119 ft 455 kts 152°
2026-04-25 10:23 42.25925 13.14689 33109 ft 455 kts 152°
2026-04-25 10:24 42.20283 13.18448 33102 ft 455 kts 152°
2026-04-25 10:24 42.15286 13.21766 33105 ft 455 kts 152°
2026-04-25 10:25 42.09568 13.25547 33109 ft 455 kts 152°
2026-04-25 10:25 42.03923 13.29284 33101 ft 455 kts 152°
2026-04-25 10:26 41.98220 13.33043 33107 ft 455 kts 152°
2026-04-25 10:26 41.92521 13.36796 33112 ft 455 kts 152°
2026-04-25 10:27 41.86860 13.40514 33108 ft 456 kts 152°
2026-04-25 10:27 41.81154 13.44259 33102 ft 456 kts 152°
2026-04-25 10:28 41.75440 13.47996 33099 ft 457 kts 152°
2026-04-25 10:28 41.69722 13.51732 33101 ft 457 kts 152°
2026-04-25 10:29 41.63999 13.55463 33104 ft 457 kts 152°
2026-04-25 10:29 41.58283 13.59181 33110 ft 456 kts 152°
2026-04-25 10:30 41.52578 13.62885 33114 ft 457 kts 152°
2026-04-25 10:30 41.47801 13.65982 33120 ft 457 kts 152°
2026-04-25 10:31 41.41864 13.69848 33116 ft 458 kts 151°
2026-04-25 10:31 41.36188 13.73719 33118 ft 457 kts 151°
2026-04-25 10:32 41.30498 13.77488 33125 ft 458 kts 151°
2026-04-25 10:32 41.24797 13.81313 33133 ft 458 kts 151°
2026-04-25 10:33 41.19068 13.85123 33127 ft 458 kts 151°
2026-04-25 10:33 41.13398 13.88895 33133 ft 457 kts 151°
2026-04-25 10:34 41.08668 13.92037 33131 ft 458 kts 151°
2026-04-25 10:34 41.02966 13.95811 33133 ft 458 kts 151°
2026-04-25 10:35 40.97246 13.99598 33133 ft 458 kts 151°
2026-04-25 10:35 40.91577 14.03337 33132 ft 458 kts 151°
2026-04-25 10:36 40.85869 14.07101 33132 ft 458 kts 152°
2026-04-25 10:36 40.80155 14.10854 33132 ft 457 kts 151°
2026-04-25 10:37 40.75108 14.14172 33138 ft 458 kts 151°
2026-04-25 10:37 40.69407 14.17902 33136 ft 458 kts 151°
2026-04-25 10:38 40.63689 14.21645 33130 ft 458 kts 151°
2026-04-25 10:38 40.58006 14.25351 33131 ft 457 kts 151°
2026-04-25 10:39 40.52294 14.29073 33131 ft 457 kts 151°
2026-04-25 10:39 40.46572 14.32793 33133 ft 457 kts 152°
2026-04-25 10:40 40.40886 14.36483 33131 ft 457 kts 152°
2026-04-25 10:40 40.35175 14.40181 33131 ft 457 kts 152°
2026-04-25 10:41 40.29488 14.43858 33137 ft 458 kts 152°
2026-04-25 10:41 40.23767 14.47549 33139 ft 458 kts 152°
2026-04-25 10:42 40.18042 14.51236 33130 ft 459 kts 152°
2026-04-25 10:42 40.12320 14.54914 33129 ft 458 kts 152°
2026-04-25 10:43 40.06590 14.58589 33136 ft 458 kts 152°
2026-04-25 10:43 40.00841 14.62273 33138 ft 459 kts 152°
2026-04-25 10:44 39.95099 14.65940 33136 ft 460 kts 152°
2026-04-25 10:44 39.89376 14.69593 33134 ft 460 kts 152°
2026-04-25 10:45 39.83613 14.73263 33143 ft 461 kts 152°
2026-04-25 10:45 39.77699 14.76429 33136 ft 463 kts 160°
2026-04-25 10:46 39.71547 14.78996 33136 ft 464 kts 160°
2026-04-25 10:46 39.65421 14.81647 33135 ft 465 kts 160°
2026-04-25 10:47 39.59260 14.84249 33142 ft 466 kts 160°
2026-04-25 10:47 39.53075 14.86891 33142 ft 466 kts 160°
2026-04-25 10:48 39.46971 14.89472 32832 ft 451 kts 160°
2026-04-25 10:48 39.41038 14.91993 32571 ft 459 kts 160°
2026-04-25 10:48 39.37980 14.93289 32066 ft 462 kts 160°
2026-04-25 10:49 39.34935 14.94569 31557 ft 461 kts 160°
2026-04-25 10:49 39.31885 14.95854 31071 ft 462 kts 160°
2026-04-25 10:49 39.28800 14.97158 30586 ft 462 kts 160°
2026-04-25 10:49 39.25759 14.98442 30101 ft 464 kts 160°
2026-04-25 10:50 39.22669 14.99742 29540 ft 465 kts 160°
2026-04-25 10:50 39.19624 15.01022 28993 ft 467 kts 160°
2026-04-25 10:50 39.16520 15.02326 28450 ft 468 kts 161°
2026-04-25 10:50 39.13406 15.03634 27920 ft 470 kts 161°
2026-04-25 10:51 39.10346 15.04916 27395 ft 455 kts 161°
2026-04-25 10:51 39.07385 15.06156 26871 ft 440 kts 161°
2026-04-25 10:51 39.04520 15.07357 26355 ft 427 kts 161°
2026-04-25 10:51 39.02086 15.08377 25919 ft 417 kts 161°
2026-04-25 10:52 38.99375 15.09510 25435 ft 409 kts 161°
2026-04-25 10:52 38.96674 15.10638 24890 ft 409 kts 161°
2026-04-25 10:52 38.93962 15.11771 24183 ft 407 kts 161°
2026-04-25 10:52 38.91273 15.12892 23443 ft 403 kts 162°
2026-04-25 10:53 38.88633 15.13991 22637 ft 400 kts 161°
2026-04-25 10:53 38.85984 15.15095 21852 ft 397 kts 161°
2026-04-25 10:53 38.83389 15.16175 21091 ft 394 kts 161°
2026-04-25 10:53 38.80784 15.17258 20349 ft 391 kts 161°
2026-04-25 10:54 38.78213 15.18326 19626 ft 388 kts 161°
2026-04-25 10:54 38.76498 15.19037 19148 ft 386 kts 161°
2026-04-25 10:54 38.73116 15.20441 18190 ft 382 kts 161°
2026-04-25 10:54 38.70588 15.21489 17402 ft 378 kts 161°
2026-04-25 10:55 38.68125 15.22508 16651 ft 375 kts 160°
2026-04-25 10:55 38.65633 15.23540 15899 ft 371 kts 160°
2026-04-25 10:55 38.63173 15.24558 15168 ft 367 kts 160°
2026-04-25 10:55 38.60776 15.25549 14467 ft 364 kts 160°
2026-04-25 10:56 38.58366 15.26543 13738 ft 360 kts 160°
2026-04-25 10:56 38.55996 15.27522 12962 ft 356 kts 160°
2026-04-25 10:56 38.53666 15.28483 12340 ft 349 kts 160°
2026-04-25 10:56 38.51394 15.29419 11826 ft 339 kts 160°
2026-04-25 10:57 38.49167 15.30336 11323 ft 330 kts 160°
2026-04-25 10:57 38.47069 15.31199 10917 ft 304 kts 160°
2026-04-25 10:57 38.45167 15.31975 11052 ft 280 kts 160°
2026-04-25 10:57 38.43311 15.32733 10992 ft 269 kts 160°
2026-04-25 10:58 38.41592 15.33432 10872 ft 259 kts 160°
2026-04-25 10:58 38.39882 15.34128 10614 ft 254 kts 160°
2026-04-25 10:58 38.38523 15.34676 11319 ft 219 kts 160°
2026-04-25 10:58 38.36969 15.35309 11291 ft 256 kts 159°
2026-04-25 10:59 38.35290 15.36015 11142 ft 235 kts 159°
2026-04-25 10:59 38.33729 15.36691 11405 ft 256 kts 157°
2026-04-25 10:59 38.32087 15.37522 11246 ft 249 kts 154°
2026-04-25 10:59 38.30485 15.38384 10967 ft 253 kts 154°
2026-04-25 11:00 38.29001 15.39507 10695 ft 244 kts 126°
2026-04-25 11:00 38.28326 15.41429 10458 ft 241 kts 92°
2026-04-25 11:00 38.28147 15.43553 10093 ft 240 kts 100°
2026-04-25 11:00 38.27471 15.45477 9695 ft 242 kts 131°
2026-04-25 11:01 38.26104 15.46740 9324 ft 246 kts 151°
2026-04-25 11:01 38.24542 15.47639 8869 ft 250 kts 154°
2026-04-25 11:01 38.22975 15.48590 8369 ft 254 kts 150°
2026-04-25 11:01 38.21405 15.49680 7843 ft 257 kts 148°
2026-04-25 11:02 38.19816 15.50775 7341 ft 259 kts 149°
2026-04-25 11:02 38.18229 15.51846 6860 ft 261 kts 149°
2026-04-25 11:02 38.16619 15.52932 6469 ft 260 kts 149°
2026-04-25 11:02 38.15040 15.53993 6160 ft 255 kts 149°
2026-04-25 11:03 38.13479 15.55047 5838 ft 249 kts 150°
2026-04-25 11:03 38.11888 15.55795 5538 ft 245 kts 174°
2026-04-25 11:03 38.10203 15.55701 5248 ft 239 kts 184°
2026-04-25 11:03 38.08561 15.55527 4935 ft 233 kts 182°
2026-04-25 11:04 38.06983 15.55404 4665 ft 226 kts 182°
2026-04-25 11:04 38.05420 15.55265 4404 ft 219 kts 184°
2026-04-25 11:04 38.03965 15.55123 4338 ft 209 kts 184°
2026-04-25 11:04 38.02956 15.55029 4167 ft 216 kts 183°
2026-04-25 11:05 38.01031 15.54858 3837 ft 208 kts 184°
2026-04-25 11:05 37.99576 15.54725 3575 ft 205 kts 184°
2026-04-25 11:05 37.98156 15.54595 3331 ft 208 kts 184°
2026-04-25 11:05 37.96717 15.54464 3075 ft 204 kts 185°
2026-04-25 11:06 37.95291 15.54334 2953 ft 204 kts 185°
2026-04-25 11:06 37.93885 15.54230 2961 ft 208 kts 180°
2026-04-25 11:06 37.92569 15.54852 2930 ft 202 kts 136°
2026-04-25 11:06 37.91879 15.56391 2907 ft 200 kts 99°
2026-04-25 11:07 37.92010 15.58038 2812 ft 188 kts 65°
2026-04-25 11:07 37.92706 15.59364 2678 ft 175 kts 50°
2026-04-25 11:07 37.93439 15.60584 2547 ft 175 kts 51°
2026-04-25 11:07 37.94151 15.61827 2373 ft 173 kts 51°
2026-04-25 11:08 37.94854 15.63045 2189 ft 167 kts 50°
2026-04-25 11:08 37.95549 15.64234 2017 ft 166 kts 50°
2026-04-25 11:08 37.96211 15.65381 1964 ft 162 kts 49°
2026-04-25 11:08 37.96873 15.66527 1956 ft 160 kts 49°
2026-04-25 11:09 37.97555 15.67692 1946 ft 161 kts 49°
2026-04-25 11:09 37.98203 15.68811 1960 ft 166 kts 49°
2026-04-25 11:09 37.98765 15.69380 2005 ft 149 kts
2026-04-25 11:09 37.99757 15.68912 1886 ft 153 kts 331°
2026-04-25 11:10 38.01119 15.68411 1873 ft 155 kts 349°
2026-04-25 11:10 38.01474 15.68324 1779 ft 151 kts 348°
2026-04-25 11:10 38.02834 15.67782 1268 ft 148 kts 339°
2026-04-25 11:10 38.03731 15.67230 1018 ft 142 kts 335°
2026-04-25 11:11 38.04615 15.66747 761 ft 138 kts 339°
2026-04-25 11:11 38.05472 15.66225 414 ft 133 kts 333°
2026-04-25 11:11 38.06299 15.65685 97 ft 131 kts 334°
2026-04-25 11:11 38.07040 15.65212 40 ft 103 kts 333°
2026-04-25 11:12 38.07405 15.64975 53 ft 16 kts 330°
2026-04-25 11:12 38.07466 15.64913 55 ft 7 kts 307°
2026-04-25 11:12 38.07474 15.64911 55 ft 2 kts 15°
2026-04-25 11:12 38.07470 15.64924 55 ft 5 kts 145°
2026-04-25 11:13 38.07406 15.64965 51 ft 11 kts 146°
2026-04-25 11:13 38.07394 15.65021 52 ft 6 kts 61°
2026-04-25 11:13 38.07416 15.65078 48 ft 9 kts 71°
2026-04-25 11:13 38.07406 15.65137 46 ft 4 kts 137°
2026-04-25 11:14 38.07392 15.65158 46 ft 5 kts 94°
2026-04-25 11:14 38.07408 15.65218 47 ft 9 kts 61°
2026-04-25 11:14 38.07416 15.65273 49 ft 3 kts 121°
2026-04-25 11:14 38.07400 15.65280 47 ft 3 kts 190°
2026-04-25 11:15 38.07392 15.65269 47 ft 0 kts 247°